Weather History for Las Vegas, NM

Change the Weather History Date:

Monday, October 1, 2012

  Actual Average Record
Temperature  
Mean Temperature 54 °F -  
Max Temperature 66 °F 73 °F 84 °F (1980)
Min Temperature 43 °F 43 °F 30 °F (1965)
Degree Days  
Heating Degree Days 10    
Growing Degree Days 4 (Base 50)    
Moisture  
Dew Point 37 °F    
Average Humidity 51    
Maximum Humidity 68    
Minimum Humidity 34    
Precipitation  
Precipitation 0.00 in - - ()
Sea Level Pressure  
Sea Level Pressure 30.07 in    
Wind  
Wind Speed 9 mph (NNE)    
Max Wind Speed 25 mph    
Max Gust Speed 33 mph    
Visibility 10 miles    
Events      
Averages and records for this station are not official NWS values.
T = Trace of Precipitation, MM = Missing Value Source: NWS Daily Summary

Daily Weather History Graph

Daily Weather History Graph

Search for Another Location

Airport:

Trip Planner

Search our weather history database for the weather conditions in past years. The results will help you decide how hot, cold, wet, or windy it might be!

Date:

Astronomy

Oct. 01, 2012 Rise Set
Actual Time 6:55 AM MDT 6:43 PM MDT
Civil Twilight 6:30 AM MDT 7:08 PM MDT
Nautical Twilight 6:00 AM MDT 7:38 PM MDT
Astronomical Twilight 5:31 AM MDT 8:08 PM MDT
Moon 7:27 PM MDT (10/1) 8:22 AM MDT (10/1)
Length of Visible Light 12h 38m
Length of Day
11h 47m
Full, 97% of the Moon is Illuminated
Oct 1
Full
Oct 8
Last Quarter
Oct 15
New
Oct 21
First Quarter
Oct 29
Full

Hourly Weather History & Observations

Time (MDT) Temp. Windchill Dew Point Humidity Pressure Visibility Wind Dir Wind Speed Gust Speed Precip Events Conditions
12:53 AM 48.9 °F - 36.0 °F 61% 30.02 in 10.0 mi NNW 5.8 mph - N/A   Mostly Cloudy
1:53 AM 50.0 °F - 36.0 °F 59% 30.03 in 10.0 mi NNE 6.9 mph - N/A   Overcast
2:53 AM 50.0 °F - 35.1 °F 57% 30.01 in 10.0 mi North 8.1 mph - N/A   Scattered Clouds
3:53 AM 46.0 °F 43.9 °F 35.1 °F 66% 30.03 in 10.0 mi NNW 4.6 mph - N/A   Clear
4:53 AM 46.0 °F 41.9 °F 34.0 °F 63% 30.04 in 10.0 mi NNE 8.1 mph - N/A   Clear
5:53 AM 45.0 °F 41.8 °F 33.1 °F 63% 30.06 in 10.0 mi North 5.8 mph - N/A   Clear
6:53 AM 43.0 °F 38.8 °F 33.1 °F 68% 30.12 in 10.0 mi NNW 6.9 mph - N/A   Clear
7:53 AM 46.9 °F - 34.0 °F 61% 30.14 in 10.0 mi North 4.6 mph - N/A   Clear
8:53 AM 55.9 °F - 36.0 °F 47% 30.13 in 10.0 mi North 8.1 mph - N/A   Clear
9:53 AM 61.0 °F - 36.0 °F 39% 30.13 in 10.0 mi NNE 21.9 mph 27.6 mph N/A   Clear
10:53 AM 64.0 °F - 35.1 °F 34% 30.11 in 10.0 mi NNE 25.3 mph 33.4 mph N/A   Clear
12:53 PM 64.9 °F - 39.9 °F 40% 30.09 in 10.0 mi ENE 20.7 mph 27.6 mph N/A   Clear
1:53 PM 64.0 °F - 39.9 °F 41% 30.07 in 10.0 mi East 18.4 mph 25.3 mph N/A   Partly Cloudy
2:53 PM 66.9 °F - 39.0 °F 36% 30.04 in 10.0 mi ENE 15.0 mph 25.3 mph N/A   Partly Cloudy
3:53 PM 64.9 °F - 37.9 °F 37% 30.06 in 10.0 mi NE 11.5 mph 16.1 mph N/A   Clear
4:53 PM 64.9 °F - 37.9 °F 37% 30.05 in 10.0 mi East 9.2 mph - N/A   Clear
5:53 PM 63.0 °F - 37.9 °F 40% 30.06 in 10.0 mi East 9.2 mph - N/A   Clear
6:53 PM 57.0 °F - 37.9 °F 49% 30.10 in 10.0 mi ENE 8.1 mph - N/A   Clear
7:53 PM 54.0 °F - 37.9 °F 55% 30.11 in 10.0 mi SE 9.2 mph - N/A   Partly Cloudy
8:53 PM 53.1 °F - 37.9 °F 57% 30.09 in 10.0 mi Calm Calm - N/A   Scattered Clouds
9:53 PM 54.0 °F - 37.0 °F 53% 30.08 in 10.0 mi Calm Calm - N/A   Scattered Clouds
10:53 PM 51.1 °F - 37.0 °F 59% 30.08 in 10.0 mi NE 3.5 mph - N/A   Clear
11:53 PM 50.0 °F - 37.0 °F 61% 30.07 in 10.0 mi Calm Calm - N/A   Clear